Location: Charbonni�res
(45.9952°N, 2.9982°E)
Time: 16:22:01
(UTC+00:00)

Genesis I - Pass Details

Date: 29 November 2020
Orbit: 493 x 527 km, 64.5° (Epoch: 22 January)

Event Time Altitude Azimuth Distance (km) Brightness Sun altitude
Exits shadow 05:25:30 17° 222° (SW) 1,320 5.0 -17.2°
Maximum altitude 05:28:20 77° 306° (NW) 519 3.0 -16.7°
Drops below altitude 10° 05:32:12 10° 34° (NE) 1,725 6.1 -16.0°
Sets 05:34:23 0° 36° (NE) 2,620 7.1 -15.7°
